SL-16 R/B (22566 NORAD) Tracking and Keplerian Element Data

This shows tracking and keplerian element data for the satellite.

Feedback or suggestion? Click here.




ElementValue
Catalog22566
NameSL-16 R/B
Epoch Orbit64575
Epoch Day34.93805361
Epoch Year2025
RAAN332.6293
Inclination71.0091
Eccentricity0.0011707
Argument of Perigee219.4981
Mean Anonmoly140.5289
Mean Motion14.15225151
Decay Rate2.72E-06
L11 22566U 93016B 25034.93805361 .00000272 00000+0 16448-3 0 9995
L22 22566 71.0091 332.6293 0011707 219.4981 140.5289 14.15225151645752



Live tracking and technical data element details for SL-16 R/B (NORAD 22566). SL-16 R/B can be tracked NOW for your location showing map with azimuth and elevation plus other details from your city location.







IsCatalogInMostPopularTable: catalog: 22566, numindb: 303
Update: records affected: 1



GetName: 22566 SL-16 R/B

Hit Count: updated at: Thu, 15 May 2025 19:39:06 GMT